{"data":{"norad_id":69221,"epoch":"2026-09-19T22:29:12.721056Z","epoch_age_seconds":75569,"freshness":"FRESH","line1":"1 69221U 26115L   26262.93695279  .00007354  00000+0  22987-3 0  9992","line2":"2 69221  97.2840 279.0324 0001718 105.7212 254.4220 15.33446693 19209","mean_motion":15.33446693,"eccentricity":0.0001718,"inclination_deg":97.284,"raan_deg":279.0324,"arg_perigee_deg":105.7212,"mean_anomaly_deg":254.422,"bstar":0.00022987,"rev_number":1920,"period_min":93.906100979801,"perigee_km":464.3623939173,"apogee_km":466.71388069448,"semimajor_km":6843.6751373059,"source":"CELESTRAK","updated_at":"2026-09-20T09:00:44.103868Z"}}